Dequincy, LA

3:41 PM CDT on September 25, 2016 (GMT -0500)
De Quincy Industrial Air Park

Weather History for K5R8 - April, 2014

Change the Weather History Date:

Thursday, April 10, 2014

  Actual Average (KLCH) Record (KLCH)
Temperature  
Mean Temperature 61 °F 67 °F  
Max Temperature 75 °F 77 °F 87 °F (1946)
Min Temperature 47 °F 57 °F 33 °F (1918)
Degree Days  
Heating Degree Days 4 2  
Month to date heating degree days 25  
Since 1 July heating degree days 1469  
Cooling Degree Days 0 4  
Month to date cooling degree days 33  
Year to date cooling degree days 105  
Growing Degree Days 11 (Base 50)    
Moisture  
Dew Point 52 °F    
Average Humidity 72    
Maximum Humidity 97    
Minimum Humidity 45    
Precipitation  
Precipitation 0.00 in 0.11 in 4.22 in (2015)
Month to date precipitation 1.07  
Year to date precipitation 13.42  
Snow  
Snow 0.00 in 0.00 in 0.00 in ()
Month to date snowfall 0.0  
Since 1 July snowfall 0.1  
Snow Depth -    
Sea Level Pressure  
Sea Level Pressure 30.14 in    
Wind  
Wind Speed 6 mph (SSE)    
Max Wind Speed 17 mph    
Max Gust Speed 26 mph    
Visibility 10 miles    
Events      
T = Trace of Precipitation, MM = Missing Value Source: NWS Daily Summary

Daily Weather History Graph

Daily Weather History Graph

Search for Another Location

Airport or City:

Trip Planner

Search our weather history database for the weather conditions in past years. The results will help you decide how hot, cold, wet, or windy it might be!

Date:

Astronomy

Apr. 10, 2014 Rise Set
Actual Time 6:52 AM CDT 7:38 PM CDT
Civil Twilight 6:27 AM CDT 8:02 PM CDT
Nautical Twilight 5:59 AM CDT 8:31 PM CDT
Astronomical Twilight 5:29 AM CDT 9:01 PM CDT
Moon 3:39 PM CDT (4/10) 3:57 AM CDT (4/10)
Length of Visible Light 13h 35m
Length of Day
12h 46m
Waxing Gibbous, 80% of the Moon is Illuminated
Apr 10
Waxing Gibbous
Apr 15
Full
Apr 22
Last Quarter
Apr 29
New
May 6
First Quarter

Hourly Weather History & Observations

Time (CDT) Temp. Dew Point Humidity Pressure Visibility Wind Dir Wind Speed Gust Speed Precip Events Conditions
12:35 AM 51.8 °F 48.6 °F 89% 30.19 in 10.0 mi SE 3.5 mph - N/A   Clear
12:55 AM 50.9 °F 48.4 °F 91% 30.19 in 10.0 mi Calm Calm - N/A   Clear
1:15 AM 51.1 °F 48.6 °F 91% 30.18 in 10.0 mi Calm Calm - N/A   Clear
1:35 AM 49.8 °F 48.0 °F 94% 30.18 in 10.0 mi Calm Calm - N/A   Clear
1:55 AM 49.5 °F 47.8 °F 94% 30.17 in 10.0 mi Calm Calm - N/A   Clear
2:15 AM 49.6 °F 48.2 °F 95% 30.17 in 10.0 mi Calm Calm - N/A   Clear
2:35 AM 49.6 °F 48.2 °F 95% 30.17 in 10.0 mi Calm Calm - N/A   Clear
2:55 AM 48.9 °F 47.3 °F 94% 30.16 in 10.0 mi Calm Calm - N/A   Clear
3:15 AM 48.7 °F 47.5 °F 95% 30.16 in 10.0 mi Calm Calm - N/A   Clear
3:55 AM 48.7 °F 47.3 °F 95% 30.15 in 10.0 mi SSE 3.5 mph - N/A   Clear
4:15 AM 48.4 °F 47.1 °F 95% 30.15 in 10.0 mi Calm Calm - N/A   Clear
4:35 AM 49.5 °F 48.0 °F 95% 30.15 in 10.0 mi Calm Calm - N/A   Clear
4:55 AM 48.7 °F 47.8 °F 97% 30.15 in 10.0 mi Calm Calm - N/A   Clear
5:15 AM 47.5 °F 46.6 °F 97% 30.15 in 10.0 mi Calm Calm - N/A   Clear
5:35 AM 47.5 °F 46.4 °F 96% 30.16 in 10.0 mi Calm Calm - N/A   Clear
5:55 AM 47.3 °F 46.2 °F 96% 30.15 in 10.0 mi SE 4.6 mph - N/A   Clear
6:15 AM 47.8 °F 47.1 °F 97% 30.15 in 10.0 mi SE 4.6 mph - N/A   Clear
6:35 AM 50.9 °F 50.2 °F 97% 30.15 in 10.0 mi SE 4.6 mph - N/A   Clear
7:15 AM 52.7 °F 51.8 °F 97% 30.15 in 10.0 mi SE 4.6 mph - N/A   Clear
7:35 AM 54.7 °F 53.4 °F 96% 30.16 in 10.0 mi SE 4.6 mph - N/A   Clear
7:55 AM 56.3 °F 54.5 °F 94% 30.16 in 10.0 mi SE 3.5 mph - N/A   Clear
8:15 AM 58.6 °F 55.8 °F 90% 30.17 in 10.0 mi SSE 5.8 mph - N/A   Clear
8:35 AM 61.0 °F 57.0 °F 87% 30.17 in 10.0 mi SSE 6.9 mph - N/A   Clear
8:55 AM 63.5 °F 57.2 °F 80% 30.17 in 10.0 mi South 9.2 mph - N/A   Clear
9:15 AM 65.3 °F 57.2 °F 75% 30.17 in 10.0 mi South 9.2 mph - N/A   Clear
9:35 AM 67.1 °F 57.2 °F 70% 30.18 in 10.0 mi SSE 13.8 mph - N/A   Clear
9:55 AM 69.1 °F 56.5 °F 64% 30.18 in 10.0 mi SSE 12.7 mph 16.1 mph N/A   Clear
10:15 AM 70.0 °F 54.7 °F 58% 30.19 in 10.0 mi SSE 15.0 mph 21.9 mph N/A   Clear
10:35 AM 70.7 °F 54.5 °F 56% 30.19 in 10.0 mi South 15.0 mph 18.4 mph N/A   Clear
10:55 AM 71.6 °F 54.3 °F 54% 30.20 in 10.0 mi South 11.5 mph 19.6 mph N/A   Clear
11:15 AM 72.0 °F 53.2 °F 52% 30.20 in 10.0 mi South 13.8 mph - N/A   Clear
11:35 AM 72.5 °F 54.0 °F 52% 30.20 in 10.0 mi South 15.0 mph 19.6 mph N/A   Clear
11:55 AM 72.5 °F 54.7 °F 53% 30.19 in 10.0 mi SSE 15.0 mph 23.0 mph N/A   Clear
12:15 PM 73.9 °F 54.5 °F 51% 30.19 in 10.0 mi SSE 13.8 mph 18.4 mph N/A   Clear
12:35 PM 74.1 °F 53.8 °F 49% 30.19 in 10.0 mi South 13.8 mph 23.0 mph N/A   Clear
12:55 PM 73.8 °F 54.1 °F 50% 30.17 in 10.0 mi SSE 17.3 mph 20.7 mph N/A   Clear
1:15 PM 74.7 °F 54.1 °F 49% 30.17 in 10.0 mi South 11.5 mph 21.9 mph N/A   Clear
1:35 PM 75.2 °F 54.0 °F 47% 30.16 in 10.0 mi South 10.4 mph 20.7 mph N/A   Clear
1:55 PM 75.2 °F 54.0 °F 47% 30.15 in 10.0 mi South 11.5 mph 26.5 mph N/A   Clear
2:15 PM 75.2 °F 53.8 °F 47% 30.15 in 10.0 mi South 11.5 mph 20.7 mph N/A   Clear
2:35 PM 74.5 °F 53.4 °F 48% 30.14 in 10.0 mi SSE 13.8 mph 21.9 mph N/A   Clear
2:55 PM 75.2 °F 54.0 °F 47% 30.14 in 10.0 mi SSE 16.1 mph 23.0 mph N/A   Clear
3:15 PM 74.5 °F 52.7 °F 46% 30.13 in 10.0 mi South 12.7 mph 23.0 mph N/A   Clear
3:35 PM 74.3 °F 52.5 °F 46% 30.12 in 10.0 mi SSE 15.0 mph 24.2 mph N/A   Clear
3:55 PM 74.3 °F 51.8 °F 45% 30.11 in 10.0 mi SSE 15.0 mph 23.0 mph N/A   Clear
4:15 PM 74.1 °F 51.8 °F 46% 30.11 in 10.0 mi South 13.8 mph 23.0 mph N/A   Clear
4:35 PM 73.4 °F 51.8 °F 47% 30.11 in 10.0 mi SSE 16.1 mph 24.2 mph N/A   Clear
4:55 PM 73.2 °F 52.3 °F 48% 30.11 in 10.0 mi SSE 16.1 mph 21.9 mph N/A   Clear
5:15 PM 73.2 °F 52.7 °F 48% 30.10 in 10.0 mi South 15.0 mph - N/A   Clear
5:35 PM 71.2 °F 51.3 °F 49% 30.10 in 10.0 mi SSE 15.0 mph 21.9 mph N/A   Clear
5:55 PM 71.2 °F 52.2 °F 51% 30.10 in 10.0 mi SSE 12.7 mph - N/A   Clear
6:15 PM 70.3 °F 52.7 °F 53% 30.10 in 10.0 mi South 11.5 mph 18.4 mph N/A   Clear
6:35 PM 69.3 °F 52.9 °F 56% 30.10 in 10.0 mi SSE 15.0 mph 21.9 mph N/A   Clear
6:55 PM 68.4 °F 53.1 °F 58% 30.10 in 10.0 mi South 9.2 mph - N/A   Clear
7:15 PM 66.7 °F 53.1 °F 61% 30.10 in 10.0 mi South 11.5 mph 17.3 mph N/A   Clear
7:35 PM 65.1 °F 53.8 °F 67% 30.10 in 10.0 mi SSE 6.9 mph - N/A   Clear
7:55 PM 64.2 °F 54.1 °F 70% 30.10 in 10.0 mi SSE 8.1 mph - N/A   Clear
8:15 PM 63.0 °F 54.3 °F 73% 30.10 in 10.0 mi SSE 5.8 mph - N/A   Clear
8:35 PM 62.1 °F 54.7 °F 77% 30.10 in 10.0 mi SE 5.8 mph - N/A   Clear
8:55 PM 61.2 °F 54.5 °F 79% 30.11 in 10.0 mi SSE 5.8 mph - N/A   Clear
9:15 PM 60.8 °F 54.5 °F 80% 30.11 in 10.0 mi SSE 5.8 mph - N/A   Clear
9:35 PM 60.4 °F 54.1 °F 80% 30.12 in 10.0 mi SSE 5.8 mph - N/A   Clear
9:55 PM 59.9 °F 54.0 °F 81% 30.12 in 10.0 mi SE 5.8 mph - N/A   Clear
10:15 PM 59.7 °F 54.1 °F 82% 30.12 in 10.0 mi SSE 4.6 mph - N/A   Clear
10:35 PM 59.0 °F 54.1 °F 84% 30.12 in 10.0 mi SE 3.5 mph - N/A   Clear
10:55 PM 59.0 °F 54.5 °F 85% 30.12 in 10.0 mi SE 4.6 mph - N/A   Clear
11:15 PM 59.0 °F 54.7 °F 86% 30.11 in 10.0 mi SE 5.8 mph - N/A   Clear
11:35 PM 59.5 °F 55.0 °F 85% 30.11 in 10.0 mi SSE 4.6 mph - N/A   Clear
11:55 PM 59.4 °F 55.4 °F 87% 30.10 in 10.0 mi SE 5.8 mph - N/A   Clear